AIB210 KLAX-KSAN

Flight info

Callsign AIB210
Flight time 0h 32m
Altitude 13000
Route KLAX/24L LAXX1 MZB DCT KSAN/27
Aircraft A20N/M-SDE3/L

Departure

Time 2026-05-04 02:18
Airport Los Angeles International Airport (KLAX)

Arrival

Time 2026-05-04 02:50
Airport San Diego International Airport (KSAN)
Time Latitude Longitude Altitude Speed Heading
2026-05-04 01:51 33.94788 -118.40131 117 ft 0 kts 188°
2026-05-04 02:08 33.94798 -118.40130 117 ft 2 kts 188°
2026-05-04 02:09 33.94813 -118.40128 116 ft 2 kts 188°
2026-05-04 02:09 33.94822 -118.40125 116 ft 1 kts 173°
2026-05-04 02:09 33.94835 -118.40134 116 ft 2 kts 120°
2026-05-04 02:09 33.94838 -118.40147 116 ft 0 kts 87°
2026-05-04 02:10 33.94836 -118.40156 117 ft 0 kts 83°
2026-05-04 02:13 33.94836 -118.40154 117 ft 0 kts 83°
2026-05-04 02:13 33.94839 -118.40134 116 ft 4 kts 83°
2026-05-04 02:13 33.94852 -118.40100 115 ft 4 kts 42°
2026-05-04 02:14 33.94887 -118.40086 115 ft 6 kts 10°
2026-05-04 02:14 33.94919 -118.40050 114 ft 8 kts 76°
2026-05-04 02:14 33.94926 -118.39996 114 ft 0 kts 82°
2026-05-04 02:14 33.94927 -118.39984 113 ft 2 kts 82°
2026-05-04 02:15 33.94931 -118.39963 114 ft 3 kts 71°
2026-05-04 02:15 33.94933 -118.39957 114 ft 0 kts 68°
2026-05-04 02:16 33.94936 -118.39951 114 ft 1 kts 65°
2026-05-04 02:16 33.94947 -118.39933 114 ft 5 kts 42°
2026-05-04 02:16 33.95006 -118.39918 114 ft 9 kts 350°
2026-05-04 02:17 33.95036 -118.39987 114 ft 13 kts 265°
2026-05-04 02:17 33.95001 -118.40346 117 ft 79 kts 263°
2026-05-04 02:17 33.94907 -118.41258 124 ft 140 kts 263°
2026-05-04 02:17 33.94771 -118.42535 550 ft 156 kts 262°
2026-05-04 02:18 33.94640 -118.43821 1170 ft 159 kts 263°
2026-05-04 02:18 33.94519 -118.45132 1859 ft 161 kts 262°
2026-05-04 02:18 33.94403 -118.46503 2337 ft 173 kts 263°
2026-05-04 02:18 33.94284 -118.48013 2759 ft 190 kts 263°
2026-05-04 02:19 33.94157 -118.49691 3119 ft 213 kts 263°
2026-05-04 02:19 33.93937 -118.51540 3598 ft 231 kts 249°
2026-05-04 02:19 33.93030 -118.53178 4068 ft 247 kts 219°
2026-05-04 02:19 33.91491 -118.54094 4812 ft 255 kts 197°
2026-05-04 02:20 33.89791 -118.54596 5762 ft 255 kts 192°
2026-05-04 02:20 33.88059 -118.55044 6663 ft 258 kts 192°
2026-05-04 02:20 33.86327 -118.55504 7534 ft 261 kts 191°
2026-05-04 02:20 33.84557 -118.56001 8391 ft 265 kts 191°
2026-05-04 02:21 33.82758 -118.56535 9220 ft 270 kts 191°
2026-05-04 02:21 33.80911 -118.56711 9982 ft 271 kts 170°
2026-05-04 02:21 33.79074 -118.56255 10683 ft 278 kts 163°
2026-05-04 02:21 33.77153 -118.55629 11112 ft 296 kts 162°
2026-05-04 02:22 33.75119 -118.54942 11498 ft 314 kts 162°
2026-05-04 02:22 33.72960 -118.54212 11852 ft 332 kts 162°
2026-05-04 02:22 33.70699 -118.53452 12167 ft 350 kts 162°
2026-05-04 02:22 33.68316 -118.52649 12586 ft 363 kts 162°
2026-05-04 02:23 33.65882 -118.51823 12924 ft 364 kts 162°
2026-05-04 02:23 33.63456 -118.50996 12988 ft 364 kts 162°
2026-05-04 02:23 33.61021 -118.50133 12995 ft 363 kts 158°
2026-05-04 02:23 33.58846 -118.48654 12992 ft 358 kts 139°
2026-05-04 02:24 33.57259 -118.46383 13001 ft 357 kts 119°
2026-05-04 02:24 33.56387 -118.43619 13015 ft 358 kts 105°
2026-05-04 02:24 33.55848 -118.40721 13014 ft 358 kts 102°
2026-05-04 02:24 33.55368 -118.37775 13012 ft 358 kts 102°
2026-05-04 02:25 33.54906 -118.34862 13010 ft 358 kts 102°
2026-05-04 02:25 33.54441 -118.31918 13009 ft 358 kts 102°
2026-05-04 02:25 33.53981 -118.29001 13007 ft 358 kts 102°
2026-05-04 02:25 33.53519 -118.26072 13005 ft 358 kts 102°
2026-05-04 02:26 33.53057 -118.23138 13003 ft 358 kts 102°
2026-05-04 02:26 33.52595 -118.20200 13000 ft 358 kts 102°
2026-05-04 02:26 33.51965 -118.17345 12975 ft 358 kts 115°
2026-05-04 02:26 33.50660 -118.14829 12993 ft 358 kts 124°
2026-05-04 02:27 33.49215 -118.12395 12991 ft 358 kts 125°
2026-05-04 02:27 33.47771 -118.09959 12990 ft 358 kts 125°
2026-05-04 02:27 33.46339 -118.07511 12989 ft 358 kts 124°
2026-05-04 02:27 33.44928 -118.05072 12972 ft 359 kts 124°
2026-05-04 02:28 33.43526 -118.02629 12957 ft 358 kts 124°
2026-05-04 02:28 33.42113 -118.00155 12956 ft 358 kts 124°
2026-05-04 02:28 33.40721 -117.97714 12957 ft 358 kts 124°
2026-05-04 02:28 33.39327 -117.95265 12958 ft 358 kts 124°
2026-05-04 02:29 33.37935 -117.92818 12959 ft 358 kts 124°
2026-05-04 02:29 33.36533 -117.90354 12960 ft 358 kts 124°
2026-05-04 02:29 33.35132 -117.87893 12960 ft 358 kts 124°
2026-05-04 02:29 33.33736 -117.85441 12960 ft 358 kts 124°
2026-05-04 02:30 33.32343 -117.82995 12960 ft 358 kts 124°
2026-05-04 02:30 33.30930 -117.80517 12959 ft 358 kts 124°
2026-05-04 02:30 33.29551 -117.78098 12959 ft 358 kts 124°
2026-05-04 02:30 33.28150 -117.75643 12959 ft 358 kts 124°
2026-05-04 02:31 33.26744 -117.73181 12959 ft 358 kts 124°
2026-05-04 02:31 33.25333 -117.70711 12961 ft 357 kts 124°
2026-05-04 02:31 33.23935 -117.68267 12964 ft 357 kts 124°
2026-05-04 02:31 33.22550 -117.65846 12967 ft 357 kts 124°
2026-05-04 02:32 33.21137 -117.63377 12969 ft 357 kts 124°
2026-05-04 02:32 33.19736 -117.60934 12971 ft 357 kts 124°
2026-05-04 02:32 33.18331 -117.58484 12973 ft 357 kts 124°
2026-05-04 02:32 33.16942 -117.56062 12974 ft 357 kts 124°
2026-05-04 02:33 33.15527 -117.53597 12974 ft 357 kts 124°
2026-05-04 02:33 33.14124 -117.51154 12975 ft 357 kts 124°
2026-05-04 02:33 33.12720 -117.48711 12975 ft 357 kts 124°
2026-05-04 02:33 33.11309 -117.46255 12975 ft 358 kts 124°
2026-05-04 02:34 33.09914 -117.43829 12975 ft 358 kts 124°
2026-05-04 02:34 33.08498 -117.41367 12975 ft 358 kts 124°
2026-05-04 02:34 33.07093 -117.38925 12975 ft 357 kts 124°
2026-05-04 02:34 33.05720 -117.36545 12861 ft 345 kts 124°
2026-05-04 02:35 33.04392 -117.34243 12442 ft 324 kts 125°
2026-05-04 02:35 33.03165 -117.32101 12043 ft 306 kts 124°
2026-05-04 02:35 33.02008 -117.30063 11711 ft 288 kts 124°
2026-05-04 02:35 33.00938 -117.28150 11417 ft 272 kts 124°
2026-05-04 02:36 32.99922 -117.26308 11139 ft 257 kts 124°
2026-05-04 02:36 32.98974 -117.24564 10819 ft 246 kts 124°
2026-05-04 02:36 32.98060 -117.22858 10311 ft 244 kts 124°
2026-05-04 02:36 32.97163 -117.21162 9758 ft 243 kts 124°
2026-05-04 02:37 32.96283 -117.19477 9218 ft 243 kts 124°
2026-05-04 02:37 32.95393 -117.17757 8672 ft 242 kts 124°
2026-05-04 02:37 32.94519 -117.16060 8138 ft 241 kts 124°
2026-05-04 02:37 32.93652 -117.14368 7666 ft 242 kts 124°
2026-05-04 02:38 32.92794 -117.12691 7504 ft 233 kts 124°
2026-05-04 02:38 32.91964 -117.11061 7330 ft 225 kts 124°
2026-05-04 02:38 32.91158 -117.09476 7054 ft 223 kts 124°
2026-05-04 02:38 32.90362 -117.07906 6718 ft 223 kts 124°
2026-05-04 02:39 32.89559 -117.06330 6388 ft 223 kts 124°
2026-05-04 02:39 32.88748 -117.04759 6082 ft 222 kts 124°
2026-05-04 02:39 32.87940 -117.03202 6006 ft 223 kts 124°
2026-05-04 02:39 32.87121 -117.01630 5999 ft 225 kts 124°
2026-05-04 02:40 32.86298 -117.00056 5995 ft 225 kts 124°
2026-05-04 02:40 32.85462 -116.98457 5993 ft 225 kts 124°
2026-05-04 02:40 32.84634 -116.96878 5993 ft 226 kts 124°
2026-05-04 02:40 32.83809 -116.95306 5992 ft 226 kts 124°
2026-05-04 02:41 32.83246 -116.94237 5992 ft 226 kts 124°
2026-05-04 02:41 32.82134 -116.92130 5992 ft 226 kts 124°
2026-05-04 02:41 32.81303 -116.90560 5992 ft 227 kts 124°
2026-05-04 02:41 32.80460 -116.88973 5992 ft 227 kts 124°
2026-05-04 02:42 32.79615 -116.87389 5992 ft 227 kts 124°
2026-05-04 02:42 32.78769 -116.85799 5954 ft 224 kts 124°
2026-05-04 02:42 32.77945 -116.84254 5650 ft 224 kts 124°
2026-05-04 02:42 32.77075 -116.82704 5300 ft 224 kts 134°
2026-05-04 02:43 32.75782 -116.81812 5005 ft 216 kts 176°
2026-05-04 02:43 32.74316 -116.82077 5022 ft 216 kts 206°
2026-05-04 02:43 32.73116 -116.83122 5020 ft 216 kts 223°
2026-05-04 02:43 32.72036 -116.84364 5004 ft 216 kts 224°
2026-05-04 02:44 32.70959 -116.85596 4997 ft 216 kts 223°
2026-05-04 02:44 32.69867 -116.86791 4993 ft 216 kts 223°
2026-05-04 02:44 32.69019 -116.88238 4958 ft 217 kts 256°
2026-05-04 02:44 32.68936 -116.90028 4996 ft 215 kts 270°
2026-05-04 02:45 32.69016 -116.91790 4706 ft 216 kts 271°
2026-05-04 02:45 32.69118 -116.93576 4376 ft 217 kts 272°
2026-05-04 02:45 32.69222 -116.95339 4139 ft 210 kts 272°
2026-05-04 02:45 32.69321 -116.97034 3834 ft 204 kts 272°
2026-05-04 02:46 32.69414 -116.98681 3635 ft 191 kts 271°
2026-05-04 02:46 32.69502 -117.00214 3438 ft 183 kts 271°
2026-05-04 02:46 32.69585 -117.01707 3157 ft 180 kts 271°
2026-05-04 02:46 32.69667 -117.03176 2877 ft 178 kts 273°
2026-05-04 02:47 32.69872 -117.04641 2667 ft 180 kts 281°
2026-05-04 02:47 32.70199 -117.06062 2405 ft 179 kts 284°
2026-05-04 02:47 32.70551 -117.07494 2169 ft 179 kts 284°
2026-05-04 02:47 32.70900 -117.08901 2010 ft 177 kts 284°
2026-05-04 02:48 32.71231 -117.10243 1972 ft 160 kts 284°
2026-05-04 02:48 32.71528 -117.11446 1983 ft 147 kts 283°
2026-05-04 02:48 32.71810 -117.12604 1886 ft 143 kts 283°
2026-05-04 02:48 32.72077 -117.13711 1624 ft 140 kts 283°
2026-05-04 02:49 32.72348 -117.14835 1213 ft 146 kts 284°
2026-05-04 02:49 32.72623 -117.16002 732 ft 151 kts 285°
2026-05-04 02:49 32.72918 -117.17214 205 ft 157 kts 284°
2026-05-04 02:49 32.73222 -117.18400 30 ft 138 kts 284°
2026-05-04 02:50 32.73433 -117.19284 26 ft 74 kts 282°
2026-05-04 02:50 32.73529 -117.19692 26 ft 22 kts 279°
2026-05-04 02:50 32.73545 -117.19834 26 ft 10 kts 215°
2026-05-04 02:50 32.73503 -117.19876 26 ft 0 kts 239°
2026-05-04 02:51 32.73502 -117.19877 26 ft 0 kts 239°
2026-05-04 02:51 32.73501 -117.19879 26 ft 0 kts 240°